Find Starlink 5562

NORAD ID: 56336 Int'l Des: 2023-058 Owner: SPXS Country: US Constellation: starlink operational
LEOCIRCULARRETROGRADESSO

当前视图

正在加载3D地球...

About Starlink 5562

Starlink 5562 (NORAD 56336) is a starlink constellation satellite (v1.5) launched Apr 27, 2023 by SPXS of US. It operates in LEO, CIRCULAR, RETROGRADE, SSO orbit with a mass of 300.00 kg.

即将过境

Passes for default location (London). Set your location on the main map for personalized predictions.

高度历史

Loading altitude history...

两行轨道根数

1 56336U 23058V 26265.58336806 .00616093 00000-0 26642-1 0 9997
2 56336 97.2849 259.3975 0001621 89.2649 136.5248 15.19998283 5685
Epoch: Sep 22, 2026 • Age: 11 hours

当前状态

高度 525.2 km
远地点 / 近地点 N/A
速度 7.60 km/s
星下点 -51.50°S, 52.47°E
发射日期 Apr 27, 2023
运行时间 3.4 years
类型 internet

技术详情

分类 Payload
质量 300.00 kg
干质量 260.00 kg
长度 0.20 m
跨度 9.00 m
形状 ? Box + pan
制造商 SPXS
平台类型 Starlink
阶段状态 In Orbit
所有者/国家 SPXS/US

Most Searched